Location: Unspecified
(17.6330°N, 0.0000°E)
Time: 06:34:50
(UTC+00:00)

S-56A Canister/Altair - Pass Details

Date: 26 June 2019
Orbit: 632 x 2500 km, 38.9° (Epoch: 17 July)

Event Time Altitude Azimuth Distance (km) Brightness Sun altitude
Rises 21:46:17 0° 300° (WNW) 3,196 11.6 -37.2°
Reaches altitude 10° 21:48:54 10° 295° (WNW) 2,136 10.4 -37.6°
Enters shadow 21:49:50 15° 292° (WNW) 1,771 9.9 -37.7°
Maximum altitude 21:53:26 49° 220° (SW) 810 - -38.2°
Drops below altitude 10° 21:57:44 10° 145° (SE) 2,027 - -38.9°
Sets 22:00:10 0° 139° (SE) 3,013 - -39.2°
